Location: ???????
(55.3754°N, 39.3545°E)
Time: 05:35:06
(UTC+00:00)

USA 234 - Pass Details

Date: 14 April 2026
Orbit: 1102 x 1106 km, 123.0° (Epoch: 4 January)

Event Time Altitude Azimuth Distance (km) Brightness Sun altitude
Rises 22:20:36 0° 116° (ESE) 3,915 6.1 -23.8°
Reaches altitude 10° 22:23:05 10° 117° (ESE) 2,959 5.4 -23.7°
Maximum altitude 22:29:38 77° 204° (SSW) 1,135 3.1 -23.5°
Drops below altitude 10° 22:36:13 10° 291° (WNW) 2,969 5.5 -23.2°
Sets 22:38:42 0° 293° (WNW) 3,929 6.2 -23.0°
